Date String (YYYY-MM-DD hh:mm:ss) UTC,Instrument flags,Ambient pressure (hPa),Sample flow (lpm),Bypass flow (lpm),Sample temperature (°C),Ambient temperature (°C),ASC tube jacket temperature (°C),LED temperature (°C),Box temperature (°C),Sample RH (%),Span deviation,Mass concentration (μg/m³),Mass concentration (μg/m³),Mass concentration (μg/m³)
DateTimeUTC,F1_M11,P_M11,Q1_M11,Q2_M11,T1_M11,T2_M11,T3_M11,T4_M11,T5_M11,U1_M11,ZSPAN_M11,X0_M11,X2_M11,X1_M11
2022-10-10 14:00:00,,0829.1,4.99,0.00,27.4,26.0,00.0,36.2,29.3,11.0,0000.0,0006.18,0003.85,0003.49
2022-10-10 14:01:00,,0828.8,5.01,0.00,27.4,26.0,00.0,36.2,29.3,11.0,0000.0,0006.20,0003.83,0003.46
2022-10-10 14:02:00,,0829.0,4.99,0.00,27.4,26.0,00.0,36.2,29.3,11.1,0000.0,0006.06,0003.79,0003.43
2022-10-10 14:03:00,,0828.8,5.01,0.00,27.5,26.0,00.0,36.2,29.3,11.1,0000.0,0005.94,0003.75,0003.40
2022-10-10 14:04:00,,0829.1,5.00,0.00,27.5,26.0,00.0,36.2,29.3,11.1,0000.0,0006.12,0003.72,0003.38
2022-10-10 14:05:00,,0828.9,4.99,0.00,27.5,26.1,00.0,36.2,29.4,11.2,0000.0,0006.01,0003.71,0003.37
2022-10-10 14:06:00,,0828.9,5.01,0.00,27.5,26.1,00.0,36.2,29.4,11.8,0000.0,0005.91,0003.70,0003.36
2022-10-10 14:07:00,,0829.1,4.99,0.00,27.5,26.1,00.0,36.2,29.4,12.2,0000.0,0006.73,0003.68,0003.36
2022-10-10 14:08:00,,0829.0,5.01,0.00,27.5,26.1,00.0,36.2,29.4,12.5,0000.0,0006.95,0003.71,0003.37
2022-10-10 14:09:00,,0828.9,5.00,0.00,27.5,26.2,00.0,36.2,29.4,12.9,0000.0,0006.93,0003.73,0003.38
2022-10-10 14:10:00,,0828.8,4.99,0.00,27.5,26.2,00.0,36.2,29.5,12.8,0000.0,0006.83,0003.75,0003.40
2022-10-10 14:11:00,,0828.7,5.01,0.00,27.5,26.2,00.0,36.2,29.4,12.8,0000.0,0006.63,0003.71,0003.42
2022-10-10 14:12:00,,0828.6,4.99,0.00,27.5,26.2,00.0,36.3,29.4,12.7,0000.0,0006.57,0003.72,0003.43
2022-10-10 14:13:00,,0828.6,5.01,0.00,27.5,26.2,00.0,36.3,29.5,13.1,0000.0,0006.56,0003.72,0003.44
2022-10-10 14:14:00,,0828.9,5.00,0.00,27.5,26.2,00.0,36.3,29.5,12.7,0000.0,0006.54,0003.73,0003.45
2022-10-10 14:15:00,,0829.0,5.00,0.00,27.6,26.2,00.0,36.3,29.5,13.0,0000.0,0006.94,0003.75,0003.46
2022-10-10 14:16:00,,0828.8,5.00,0.00,27.6,26.3,00.0,36.3,29.5,13.7,0000.0,0006.80,0003.75,0003.46
2022-10-10 14:17:00,,0828.7,4.99,0.00,27.6,26.3,00.0,36.3,29.5,14.2,0000.0,0006.90,0003.77,0003.46
2022-10-10 14:18:00,,0828.8,5.01,0.00,27.6,26.3,00.0,36.3,29.5,14.7,0000.0,0008.86,0003.91,0003.46
2022-10-10 14:19:00,,0828.7,4.99,0.00,27.6,26.3,00.0,36.3,29.5,14.7,0000.0,0009.78,0004.04,0003.46
2022-10-10 14:20:00,,0828.6,5.01,0.00,27.6,26.3,00.0,36.3,29.5,14.6,0000.0,0010.49,0004.11,0003.46
2022-10-10 14:21:00,,0828.7,4.99,0.00,27.6,26.3,00.0,36.3,29.6,14.1,0000.0,0010.72,0004.15,0003.45
2022-10-10 14:22:00,,0828.6,5.01,0.00,27.6,26.3,00.0,36.3,29.6,14.2,0000.0,0011.11,0004.20,0003.44
2022-10-10 14:23:00,,0828.6,4.98,0.00,27.7,26.4,00.0,36.4,29.6,13.9,0000.0,0012.13,0004.22,0003.43
2022-10-10 14:24:00,,0828.8,5.01,0.00,27.7,26.4,00.0,36.4,29.6,14.1,0000.0,0012.33,0004.25,0003.43
2022-10-10 14:25:00,,0828.7,4.99,0.00,27.7,26.4,00.0,36.4,29.6,14.2,0000.0,0012.58,0004.28,0003.45
2022-10-10 14:26:00,,0828.6,5.01,0.00,27.7,26.4,00.0,36.4,29.6,14.3,0000.0,0012.90,0004.29,0003.47
2022-10-10 14:27:00,,0828.7,4.99,0.00,27.7,26.4,00.0,36.4,29.6,14.2,0000.0,0012.89,0004.31,0003.49
2022-10-10 14:28:00,,0828.9,5.00,0.00,27.7,26.4,00.0,36.4,29.6,14.6,0000.0,0012.98,0004.33,0003.51
2022-10-10 14:29:00,,0829.1,5.01,0.00,27.7,26.4,00.0,36.4,29.6,14.4,0000.0,0011.65,0004.24,0003.53
2022-10-10 14:30:00,,0828.9,4.99,0.00,27.7,26.5,00.0,36.4,29.7,14.4,0000.0,0010.61,0004.12,0003.53
2022-10-10 14:31:00,,0828.8,5.01,0.00,27.8,26.5,00.0,36.5,29.7,13.9,0000.0,0010.09,0004.06,0003.53
2022-10-10 14:32:00,,0828.7,4.99,0.00,27.8,26.5,00.0,36.5,29.7,13.9,0000.0,0010.32,0004.02,0003.54
2022-10-10 14:33:00,,0828.8,5.01,0.00,27.8,26.5,00.0,36.5,29.7,13.4,0000.0,0010.23,0003.97,0003.54
2022-10-10 14:34:00,,0828.6,4.98,0.00,27.8,26.5,00.0,36.5,29.7,13.0,0000.0,0009.31,0003.97,0003.55
2022-10-10 14:35:00,,0828.6,5.01,0.00,27.8,26.5,00.0,36.5,29.7,13.1,0000.0,0009.12,0003.98,0003.55
2022-10-10 14:36:00,,0828.7,4.99,0.00,27.8,26.5,00.0,36.5,29.7,13.0,0000.0,0009.15,0003.97,0003.54
2022-10-10 14:37:00,,0828.6,5.01,0.00,27.8,26.5,00.0,36.5,29.7,13.1,0000.0,0008.45,0003.98,0003.53
2022-10-10 14:38:00,,0828.8,5.00,0.00,27.8,26.6,00.0,36.5,29.7,12.7,0000.0,0008.32,0003.94,0003.51
2022-10-10 14:39:00,,0828.7,5.00,0.00,27.8,26.6,00.0,36.5,29.8,12.8,0000.0,0008.22,0003.89,0003.49
2022-10-10 14:40:00,,0828.9,5.01,0.00,27.9,26.6,00.0,36.6,29.8,12.7,0000.0,0008.96,0003.92,0003.48
2022-10-10 14:41:00,,0829.0,4.99,0.00,27.9,26.6,00.0,36.6,29.8,12.6,0000.0,0008.61,0003.90,0003.47
2022-10-10 14:42:00,,0829.1,5.01,0.00,27.9,26.7,00.0,36.6,29.8,12.4,0000.0,0008.33,0003.88,0003.47
2022-10-10 14:43:00,,0828.8,4.99,0.00,27.9,26.7,00.0,36.6,29.8,13.3,0000.0,0007.88,0003.89,0003.47
2022-10-10 14:44:00,,0829.0,5.01,0.00,27.9,26.7,00.0,36.6,29.8,14.2,0000.0,0007.74,0003.92,0003.50
2022-10-10 14:45:00,,0829.1,5.00,0.00,27.9,26.7,00.0,36.6,29.8,15.2,0000.0,0007.77,0003.94,0003.51
2022-10-10 14:46:00,,0828.6,4.99,0.00,27.9,26.7,00.0,36.6,29.9,15.0,0000.0,0007.81,0003.94,0003.53
2022-10-10 14:47:00,,0828.6,5.02,0.00,28.0,26.7,00.0,36.6,29.9,14.7,0000.0,0008.02,0004.00,0003.55
2022-10-10 14:48:00,,0828.8,4.99,0.00,28.0,26.7,00.0,36.7,29.9,14.9,0000.0,0008.21,0004.01,0003.56
2022-10-10 14:49:00,,0828.6,5.00,0.00,28.0,26.8,00.0,36.7,29.9,14.6,0000.0,0009.05,0004.11,0003.59
2022-10-10 14:50:00,,0828.9,5.01,0.00,28.0,26.8,00.0,36.7,29.9,14.1,0000.0,0009.39,0004.19,0003.61
2022-10-10 14:51:00,,0829.0,4.99,0.00,28.0,26.8,00.0,36.7,29.9,14.1,0000.0,0009.53,0004.22,0003.63
2022-10-10 14:52:00,,0829.2,5.01,0.00,28.0,26.8,00.0,36.7,30.0,14.3,0000.0,0009.60,0004.28,0003.65
2022-10-10 14:53:00,,0829.2,4.99,0.00,28.1,26.9,00.0,36.7,30.0,15.6,0000.0,0009.66,0004.31,0003.66
2022-10-10 14:54:00,,0829.2,5.01,0.00,28.1,26.9,00.0,36.8,30.0,15.7,0000.0,0009.99,0004.34,0003.69
2022-10-10 14:55:00,,0829.2,4.98,0.00,28.1,26.9,00.0,36.8,30.0,15.3,0000.0,0010.18,0004.36,0003.70
2022-10-10 14:56:00,,0829.1,5.00,0.00,28.1,26.9,00.0,36.8,30.0,15.8,0000.0,0010.18,0004.37,0003.71
2022-10-10 14:57:00,,0829.2,5.00,0.00,28.1,26.9,00.0,36.8,30.1,15.9,0000.0,0010.15,0004.40,0003.73
2022-10-10 14:58:00,,0829.1,4.98,0.00,28.1,26.9,00.0,36.8,30.1,15.6,0000.0,0009.99,0004.41,0003.75
2022-10-10 14:59:00,,0829.1,5.01,0.00,28.2,27.0,00.0,36.8,30.1,15.1,0000.0,0009.93,0004.42,0003.76
